Vitoria Aeroporto, Brazil

11:51 PM -03 on August 19, 2017 (GMT -0300)
Goiabeiras

Weather History for SBVT - February, 2014

Change the Weather History Date:

Saturday, February 15, 2014

  Actual Average Record
Temperature  
Mean Temperature 86 °F -  
Max Temperature 95 °F 86 °F 95 °F (2014)
Min Temperature 76 °F 74 °F 74 °F (2015)
Cooling Degree Days 20    
Growing Degree Days 36 (Base 50)    
Moisture  
Dew Point 70 °F    
Average Humidity 63    
Maximum Humidity 79    
Minimum Humidity 37    
Precipitation  
Precipitation 0.00 in - - ()
Sea Level Pressure  
Sea Level Pressure 29.92 in    
Wind  
Wind Speed 8 mph ()    
Max Wind Speed 23 mph    
Max Gust Speed -    
Visibility 7.4 miles    
Events      
Averages and records for this station are not official NWS values.
T = Trace of Precipitation, MM = Missing Value Source: Averaged Metar Reports

Daily Weather History Graph

Daily Weather History Graph

Search for Another Location

Airport or City:

Trip Planner

Search our weather history database for the weather conditions in past years. The results will help you decide how hot, cold, wet, or windy it might be!

Date:

Astronomy

Feb. 15, 2014 Rise Set
Actual Time 6:32 AM -02 7:17 PM -02
Civil Twilight 6:09 AM -02 7:40 PM -02
Nautical Twilight 5:42 AM -02 8:07 PM -02
Astronomical Twilight 5:15 AM -02 8:34 PM -02
Moon 7:34 PM -02 (2/15) 6:53 AM -02 (2/15)
Length of Visible Light 13h 30m
Length of Day
12h 45m
Full, 100% of the Moon is Illuminated
Feb 15
Full
Feb 22
Last Quarter
Mar 1
New
Mar 8
First Quarter
Mar 16
Full

Hourly Weather History & Observations

Time (-02) Temp. Heat Index Dew Point Humidity Pressure Visibility Wind Dir Wind Speed Gust Speed Precip Events Conditions
12:00 AM 80.6 °F 84.6 °F 71.6 °F 74% 29.92 in 6.2 mi North 6.9 mph - N/A   Partly Cloudy
1:00 AM 80.6 °F 84.6 °F 71.6 °F 74% 29.92 in 6.2 mi North 8.1 mph - N/A   Partly Cloudy
2:00 AM 80.6 °F 84.6 °F 71.6 °F 74% 29.92 in 6.2 mi North 6.9 mph - N/A   Partly Cloudy
3:00 AM 78.8 °F - 69.8 °F 74% 29.89 in 6.2 mi North 5.8 mph - N/A   Partly Cloudy
4:00 AM 79 °F - 70 °F 68% 29.91 in 12 mi North 5.8 mph - -   Scattered Clouds
4:00 AM 78.8 °F - 69.8 °F 74% 29.89 in 6.2 mi North 5.8 mph - N/A   Partly Cloudy
5:00 AM 77.0 °F - 69.8 °F 78% 29.89 in - North 3.5 mph - N/A   Clear
6:00 AM 77.0 °F - 69.8 °F 78% 29.89 in - North 2.3 mph - N/A   Clear
7:00 AM 77.0 °F - 69.8 °F 78% 29.92 in - NNW 2.3 mph - N/A   Clear
8:00 AM 84.2 °F 88.4 °F 69.8 °F 62% 29.95 in - North 4.6 mph - N/A   Clear
9:00 AM 86.0 °F 90.4 °F 69.8 °F 58% 29.95 in 6.2 mi North 8.1 mph - N/A   Partly Cloudy
10:00 AM 90 °F - 69 °F 40% 29.97 in 12 mi NNE 9.2 mph - -   Clear
10:00 AM 89.6 °F 93.4 °F 68.0 °F 49% 29.95 in - NNE 9.2 mph - N/A   Clear
11:00 AM 91.4 °F 95.4 °F 68.0 °F 46% 29.95 in - NNE 12.7 mph - N/A   Clear
12:00 PM 93.2 °F 96.2 °F 66.2 °F 41% 29.95 in 6.2 mi North 12.7 mph - N/A   Scattered Clouds
1:00 PM 96.8 °F 105.1 °F 71.6 °F 44% 29.92 in 6.2 mi ENE 12.7 mph - N/A   Partly Cloudy
2:00 PM 93.2 °F 100.5 °F 71.6 °F 49% 29.89 in 6.2 mi ENE 20.7 mph - N/A   Partly Cloudy
3:00 PM 93.2 °F 98.8 °F 69.8 °F 46% 29.89 in 6.2 mi East 20.7 mph - N/A   Partly Cloudy
4:00 PM 92 °F - 69 °F 37% 29.88 in 12 mi ENE 23.0 mph - -   Scattered Clouds
4:00 PM 93.2 °F 97.7 °F 68.0 °F 44% 29.86 in 6.2 mi ENE 23.0 mph - N/A   Partly Cloudy
5:00 PM 89.6 °F 94.7 °F 69.8 °F 52% 29.86 in 6.2 mi ENE 20.7 mph - N/A   Partly Cloudy
6:00 PM 86.0 °F 91.8 °F 71.6 °F 62% 29.86 in 6.2 mi ENE 20.7 mph - N/A   Partly Cloudy
7:00 PM 82.4 °F 87.2 °F 71.6 °F 70% 29.89 in 6.2 mi NE 15.0 mph - N/A   Scattered Clouds
8:00 PM 80.6 °F 85.4 °F 73.4 °F 79% 29.92 in 6.2 mi NE 10.4 mph - N/A   Scattered Clouds
9:00 PM 80.6 °F 85.4 °F 73.4 °F 79% 29.95 in - NNE 6.9 mph - N/A   Clear
10:00 PM 80 °F - 73 °F 73% 29.99 in 12 mi North 4.6 mph - -   Scattered Clouds
10:00 PM 80.6 °F 85.4 °F 73.4 °F 79% 29.98 in - North 4.6 mph - N/A   Clear
11:00 PM 78.8 °F - 71.6 °F 78% 29.98 in 6.2 mi North 4.6 mph - N/A   Partly Cloudy